Location: Newark
(52.3500°N, 175.9667°E)
Time: 22:24:27
(UTC+00:00)

Altair - Pass Details

Date: 27 April 2021
Orbit: 1501 x 1683 km, 47.2° (Epoch: 05 May)

Event Time Altitude Azimuth Distance (km) Brightness Sun altitude
Rises 15:51:33 0° 219° (SW) 4,913 - -8.8°
Exits shadow 15:54:05 - 215° (SW) 4,166 9.2 -8.4°
Reaches altitude 10° 15:54:57 10° 213° (SSW) 3,913 9.0 -8.3°
Maximum altitude 16:04:02 41° 148° (SSE) 2,220 8.4 -7.2°
Drops below altitude 10° 16:12:51 10° 83° (E) 3,804 10.8 -6.1°
Sets 16:16:06 0° 76° (ENE) 4,765 11.8 -5.7°
